Regional Weather Roundup
Issued by NWS

Home | Current Version | Previous Version | Graphics & Text | Print | Product List | Glossary On
Versions: 1 2 3 4 5 6 7 8 9 10 11 12 13 14 15 16 17 18 19 20 21 22 23 24 25 26 27 28 29 30 31 32 33 34 35 36 37 38 39 40 41 42 43 44 45 46 47 48 49 50
000
ASUS44 KMEG 280510
RWRTN
TENNESSEE HOURLY STATE WEATHER ROUNDUP
NATIONAL WEATHER SERVICE MEMPHIS TN
1200 AM CDT TUE MAR 28 2017

TNZ002-004-019-021-049-052-054-088>092-280600-
WEST TENNESSEE

CITY           SKY/WX    TMP DP  RH WIND       PRES   REMARKS
MEMPHIS INTL   MOCLDY    65  58  78 NE8       29.90R
NWS MEMPHIS      N/A     63 N/A N/A MISG        N/A
JACKSON        FOG       57  57 100 CALM      29.89F VSB 1/2
DYERSBURG      FOG       54  54 100 CALM      29.90S VSB 1/2
SOMERVILLE     CLOUDY    61  59  94 CALM      29.89S
BOLIVAR        CLOUDY    57  57 100 CALM      29.89S FOG
PARIS          CLOUDY    48  48 100 CALM      29.89S VSB 0
HUNTINGDON     FOG       52  52 100 CALM      29.88S VSB 0
SAVANNAH       FOG       59  59 100 CALM      29.88S VSB 1/2
$$

TNZ008-025-027-028-033-062-065-066-280600-
NORTH MIDDLE TENNESSEE

CITY           SKY/WX    TMP DP  RH WIND       PRES   REMARKS
NASHVILLE      MOCLDY    59  57  93 W3        29.87R
PORTLAND       CLOUDY    57  55  94 NW3       29.87R
CLARKSVILLE    FOG       54  53  97 W3        29.87F VSB 1/2
SMYRNA         RAIN      59  57  93 S3          N/A
COOKEVILLE     MOCLDY    55  55 100 S5        29.88S
GALLATIN       PTCLDY    57  55  94 CALM      29.89R
CROSSVILLE     MOCLDY    55  51  86 CALM      29.92R
$$

TNZ061-075-076-078-094-096-097-280600-
SOUTH MIDDLE TENNESSEE

CITY           SKY/WX    TMP DP  RH WIND       PRES   REMARKS
TULLAHOMA      MOCLDY    55  55 100 S3        29.91R
WINCHESTER     PTCLDY    57  55  94 S8        29.91R
MCMINNVILLE    CLEAR     57  57 100 CALM      29.89S
COLUMBIA       MOCLDY   N/A N/A N/A S7        29.87S
SHELBYVILLE    MOCLDY    57  57 100 S8        29.90S
$$

TNZ017-018-042-046-047-280600-
NORTHEAST TENNESSEE

CITY           SKY/WX    TMP DP  RH WIND       PRES   REMARKS
TRI CITIES     CLOUDY    58  56  93 CALM      29.95F
ELIZABETHTON     N/A     59  57  94 CALM      29.95F
$$

TNZ012-013-036-069-073-074-280600-
CENTRAL EAST TENNESSEE

CITY           SKY/WX    TMP DP  RH WIND       PRES   REMARKS
KNOXVILLE      LGT RAIN  58  55  90 W8        29.97R FOG
OAK RIDGE      HVY RAIN  57  55  93 E7        29.92F FOG
DOWNTOWN KNOXV CLOUDY    61  59  94 W6        29.98R FOG
GATLINBURG     MOCLDY    57  55  94 W7        29.97R
MORRISTOWN     CLOUDY    59  59 100 N6        29.96S
JACKSBORO      MOCLDY    57  57 100 VRB3      29.94F
$$

TNZ083-085-099-280600-
SOUTHEAST TENNESSEE

CITY           SKY/WX    TMP DP  RH WIND       PRES   REMARKS
CHATTANOOGA    HVY RAIN  59  59 100 SE8       29.95F
$$

SKY/WX REPORTED AS FAIR MEANS FEW OR NO CLOUDS BELOW
12 THOUSAND FEET.





USA.gov is the U.S. government's official web portal to all federal, state and local government web resources and services.